Submittal Forms
Current Contests
Recent Contests

Club Activity Tracker - Kansas City Contest Club (from club selection on form)

Recent postings for the selected club or group are listed below. Other than the call used, all calls listed are only those associated with the club or group. Click on a call to see the details of the posting.
Status Key: new=new posting, update=update prior posting, move=change club/group, delete=delete prior posting.

Sort by   for past

TimestampCallContestClassPowerScoreStatus
2021-05-14 03:02:00K0VBUNCCC SprintSingle OpLP918new6425
2021-05-13 04:03:12AI6OCWopsTSingle OpLP9,690new6421
2021-05-13 04:01:41K0VBUCWopsTSingle OpLP11,716new6421
2021-05-12 14:05:10K0VBUCWopsTSingle OpLP100new6419
2021-05-12 14:00:44NW0MCWopsTSingle OpLP8,281new6419
2021-05-12 13:45:11AI6OCWopsTSingle OpLP1,849new6419
2021-05-09 20:16:49W0MBVolta RTTYSOABHP21,193,770new6411
2021-05-09 13:53:52AI6OCQ-MSOABCWLP10,027new6412
2021-05-09 04:02:32K0APArQPSOCWLP1,196new6413
2021-05-09 01:43:10NW0MArQPSOCWLP2,970new6413
 
2021-05-07 04:17:32K0APNCCC SprintSingle OpLP736new6409
2021-05-07 03:02:56K0VBUNCCC SprintSingle OpLP1,764new6409
2021-05-06 04:02:17AI6OCWopsTSingle OpLP2,850new6404
2021-05-06 04:01:11K0VBUCWopsTSingle OpLP11,172new6404
2021-05-06 04:00:57NW0MCWopsTSingle OpLP5,025new6404
2021-05-05 22:49:58AI6OCWopsTSingle OpLP5,625new6402
2021-05-05 20:01:18K0VBUCWopsTSingle OpLP12,321new6403
2021-05-05 18:48:56W0MB7QPSO(A)MixedHP97,188new6394
2021-05-05 14:01:47K0VBUCWopsTSingle OpLP676new6402
2021-05-05 13:49:34NW0MCWopsTSingle OpLP676new6402
 
2021-05-03 01:04:51AI6OInQPSingle OpLP496new6395
2021-05-03 01:02:50AI6ONewEngQPSingle OpLP5,772new6397
2021-05-03 01:00:58AI6ODeQPSingle OpLP160new6396
2021-05-03 00:59:06AI6O7QPSOMixedLP18,300new6394
2021-05-02 23:50:16NW0MNewEngQPSingle OpLP6,930new6397
2021-05-02 23:49:08NW0M7QPSOCWLP21,390new6394
2021-05-02 23:47:45NW0MInQPSingle OpLP364new6395
2021-04-29 04:04:07AI6OCWopsTSingle OpLP8,448new6386
2021-04-29 04:02:49K0VBUCWopsTSingle OpLP13,090new6386
2021-04-28 20:03:03K0VBUCWopsTSingle OpLP5,616new6385
 
2021-04-28 19:35:11AI6OCWopsTSingle OpLP225new6385
2021-04-28 17:36:22AI6OCWopsTSingle OpLP3,249new6384
2021-04-28 14:01:52K0VBUCWopsTSingle OpLP324new6384
2021-04-26 02:25:54K0VBUKRC SSTSingle OpLP1,652new6380
2021-04-25 22:44:44K0VXUFlQPSOABCWHP2,430new6375
2021-04-25 22:24:12NW0MFlQPSOABCWLP7,200new6375
2021-04-25 22:04:41K0VBUFlQPSOAB(A)MixedLP62,390new6375
2021-04-25 22:03:43K3PAFlQPSOAB(A)MixedHP18,942new6375
2021-04-25 13:08:30K3PAHelvetiaSO MixedHP1,162new6373
2021-04-23 20:50:31NW0MKRC SSTSingle OpLP80new6371
 
2021-04-23 03:03:40K0VBUNCCC SprintSingle OpLP1,305new6370
2021-04-22 04:02:56K0VBUCWopsTSingle OpLP8,170new6366
2021-04-21 20:03:20K0VBUCWopsTSingle OpLP10,200new6365
2021-04-21 14:04:17NW0MCWopsTSingle OpLP400new6364
2021-04-21 14:02:07K0VBUCWopsTSingle OpLP1,122new6364
2021-04-21 13:54:18AI6OCWopsTSingle OpLP121new6364
2021-04-20 02:20:46AI6OOnQPSO MixedLP8,050new5642
2021-04-20 02:16:27AI6OMiQPSingle OpLP1,104new6357
2021-04-20 02:13:24AI6OCQMM DXSOABLP25,500new6356
2021-04-19 01:03:04K0VBUKRC SSTSingle OpLP322new6358
 
2021-04-19 00:05:37K3PACQMM DXSOABHP253,946new6356
2021-04-18 13:32:59NW0MMiQPSingle OpLP2,820new6357
2021-04-16 03:02:28K0VBUNCCC SprintSingle OpLP704new6350
2021-04-15 04:02:18AI6OCWopsTSingle OpLP7,560new6347
2021-04-15 04:01:13K0VBUCWopsTSingle OpLP11,211new